Flag for U.S.A. Weather past 2 weeks in Springfield, Missouri, U.S.A.

Now
70 °F

Sunny.


Feels Like: 73 °F
Forecast: 65 / 84 °F
Wind: 10 mph from East

Location: Springfield Regional Airport

Current Time: Jul 24, 2014 at 8:18:52 AM

Latest Report: Jul 24, 2014 at 7:52 AM


Visibility: 10 mi

Pressure: 30.10 "Hg

Humidity: 73%

Dew point: 61 °F

Location of SpringfieldLocation

Historic Weather in Springfield — Graph

°F

Springfield temperature yesterday

Maximum temperature yesterday: 92 °F (at 3:52 PM)
Minimum temperature yesterday: 73 °F (at 10:52 PM)
Average temperature yesterday: 82 °F

Past Weeks' High & Low Weather Summary

 TemperatureHumidityPressure
High92 °F (Jul 23, 3:52 PM)97% (Jul 14, 4:52 AM)30.12 "Hg (Jul 14, 4:52 AM)
Low56 °F (Jul 15, 6:52 AM)41% (Jul 9, 1:52 PM)29.91 "Hg (Jul 13, 8:52 PM)
Average74 °F70%30.03 "Hg
* Reported Jul 9 7:52 AM — Jul 24 6:52 AM, Springfield, Weather by CustomWeather, © 2014

Note: Actual official high and low records may vary slightly from our data, if they occured in-between our weather recording intervals... More about our weather records

Advertising

Springfield weather history for previous 24 hours

 ConditionsComfort  
Time TempWeatherWind HumidityBarometerVisibility
6:52 AM
Jul 24
67 °FPassing clouds.5 mph87%30.08 "Hg10 mi
5:52 AM67 °FClear.5 mph90%30.06 "Hg10 mi
4:52 AM68 °FClear.7 mph87%30.05 "Hg10 mi
3:52 AM69 °FClear.6 mph87%30.03 "Hg10 mi
2:52 AM70 °FClear.7 mph84%30.04 "Hg10 mi
1:52 AM71 °FClear.6 mph81%30.04 "Hg10 mi
12:52 AM73 °FClear.7 mph76%30.04 "Hg10 mi
11:52 PM
Jul 23
74 °FClear.8 mph79%30.05 "Hg10 mi
10:52 PM73 °FClear.3 mph88%30.05 "Hg10 mi
9:52 PM75 °FClear.No wind82%30.05 "Hg10 mi
8:52 PM77 °FSunny.3 mph79%30.04 "Hg10 mi
7:52 PM82 °FSunny.10 mph65%30.02 "Hg10 mi
6:52 PM89 °FSunny.9 mph42%30.00 "Hg10 mi
5:52 PM90 °FSunny.12 mph42%30.01 "Hg10 mi
4:52 PM92 °FPassing clouds.14 mph41%29.99 "Hg10 mi
3:52 PM92 °FPassing clouds.20 mph51%29.99 "Hg10 mi
2:52 PM91 °FScattered clouds.21 mph57%30.00 "Hg10 mi
1:52 PM88 °FBroken clouds.13 mph67%30.03 "Hg10 mi
12:52 PM88 °FPassing clouds.10 mph73%30.03 "Hg9 mi
11:52 AM87 °FOvercast.7 mph72%30.04 "Hg8 mi
10:52 AM83 °FLow clouds.8 mph82%30.05 "Hg6 mi
9:52 AM82 °FLow clouds.6 mph82%30.04 "Hg5 mi
8:52 AM82 °FHaze.10 mph82%30.06 "Hg6 mi
Weather by CustomWeather, © 2014

See weather overviewHow to use our weather pages